map of CZA home
CZA - Airport
Location
City:  Chichen Itza, Yucatán, México
ICAO:MMCT
IATA:CZA

Details
Type:Airport (Aerodrome, Airfield)
Use:Public/Civil, International (customs port of entry)
Latitude:20°38'29"N (20.641294)
Longitude:88°26'46"W (-88.446218)
Datum:WGS 1984
Elevation:102 ft (31 m)
Variation:1.02°W (WMM2015 magnetic declination)
-0.13° annual change
Runways:1
Longest:9186 × 148 ft (2800 × 45 m), paved

Time
Time Zone:UTC-6 (DST-5)
Local Time:

Weather
METAR:MMCT 161545Z 00000KT 8SM BKN070 22/15 A3022 RMK 8/020

Related Locations
Nearby:
Farthest:CCK: 11756 mi / 18920 km
West Island (Pulau Panjang) [Cocos (Keeling) Islands], CC

Find:

   beyond  
but within

Other Information
Maps:
NOTAMs:
Links:
Sources:

  
  • flag of México
  • flag of Yucatán
  

Sectional Chart

Flight Planning
at skyvector.com

Satellite Image

Google Maps Satellite view

 

Copyright © 2004-2018 Karl L. Swartz. All rights reserved.
The Great Circle Mapper name and logo are trademarks of the Great Circle Mapper.
All other trademarks mentioned herein belong to their respective owners.
Please see credits for attibutions and further copyright information.

  Follow gcmap on Facebook Follow gcmap on Twitter Follow gcmap on Google+ GCmap on LinkedIn

hCard Microformat

Geo Microformat